Temp
65 65 64 64 63 63 63 63 62 62 63 63 63 63 63 63 63 63 63 64 65 64 64 64 64 63 56 48 47 61 68 66 63 60 57 54 52 52 46 49 49 47 47 51 50 53 52
64 64 64 64 63 63 63 63 62 62 62 62 63 62 62 63 63 63 63 63 64 64 64 64 64 62 51 41 59 63 62 62 60 59 57 56 57 54 48 47 47 47 50 48 51 51 51
64 64 64 64 64 63 62 62 62 61 62 62 62 62 62 62 62 63 63 63 63 64 64 65 64 59 50 48 61 60 63 60 59 60 55 56 60 52 50 47 49 49 48 48 49 50 49
64 64 64 64 63 63 62 61 62 61 61 61 61 61 61 61 62 62 62 62 62 62 63 64 64 57 50 61 59 61 62 61 62 62 58 59 61 52 49 50 48 45 43 40 48 49 50
63 64 63 63 63 63 62 62 61 61 61 61 61 60 60 61 61 61 61 61 63 63 64 64 57 55 49 64 57 59 61 58 60 60 57 64 56 48 48 42 39 40 35 37 41 47 47
64 63 62 62 62 62 62 62 61 61 61 60 60 59 60 60 60 61 60 61 63 62 61 61 61 48 55 52 57 60 62 61 58 56 54 53 46 42 41 40 32 36 35 36 37 44 46
63 63 62 62 63 62 62 62 61 61 60 59 59 59 59 60 60 61 55 55 48 50 53 49 49 49 51 58 60 57 58 58 57 51 44 45 36 30 34 36 41 41 39 37 38 45 40
62 62 62 62 62 62 61 61 61 60 59 59 59 59 59 60 60 60 52 46 44 47 43 52 53 54 57 57 53 56 60 53 51 43 44 39 33 40 42 42 42 41 38 34 39 43 40
61 62 61 61 61 61 61 60 61 59 59 59 59 59 59 59 60 53 48 47 51 49 41 50 53 53 53 58 51 50 56 52 48 43 40 35 38 44 43 39 41 35 36 34 36 39 38
61 61 61 61 61 60 60 60 60 59 58 58 58 59 59 59 55 49 47 50 50 49 32 40 49 51 55 55 50 58 57 52 47 41 39 38 43 43 40 38 38 36 38 40 40 34 30
61 61 60 60 60 60 60 60 60 59 58 57 58 58 58 58 50 48 49 49 49 48 19 44 47 59 55 50 49 52 56 52 42 40 40 35 38 39 37 37 39 37 41 38 35 33 27
61 60 60 60 60 59 59 59 59 59 58 57 57 57 58 52 48 48 49 48 48 31 20 34 45 44 47 47 48 50 49 52 49 43 41 37 42 41 38 41 41 42 39 36 32 31 21
61 60 60 60 60 59 59 59 59 59 58 57 57 57 55 53 46 49 48 46 31 22 38 37 38 42 41 42 45 44 41 38 37 33 32 36 37 41 43 38 41 39 33 21 24 19 23
60 60 60 60 59 59 59 59 59 58 57 56 56 56 53 52 48 48 46 39 24 32 34 41 40 41 38 41 41 41 38 35 39 35 30 26 25 36 42 36 34 34 34 23 23 20 21
61 60 60 59 59 59 59 59 58 58 57 56 55 47 47 49 51 47 43 27 28 33 39 39 40 36 36 40 39 38 34 34 36 36 31 30 30 38 40 40 39 34 28 34 22 19 18
60 60 60 60 59 59 58 58 58 58 57 56 46 46 47 50 48 45 36 33 34 40 41 40 34 35 30 35 35 35 34 37 38 39 37 33 29 35 39 40 39 36 38 28 25 22 20
59 59 60 60 58 58 58 58 58 58 57 55 45 46 50 48 47 41 29 31 37 43 43 39 36 35 34 34 34 32 32 37 40 41 39 35 32 31 34 32 33 34 30 30 30 26 21
59 59 59 59 58 57 57 57 57 57 56 50 43 42 49 47 39 32 32 37 45 40 43 41 40 39 36 36 33 33 33 35 42 40 35 35 33 24 30 34 36 33 32 32 27 25 23
59 59 59 58 57 57 57 57 57 57 55 44 43 42 49 48 33 33 36 40 41 41 41 41 39 41 40 36 33 35 36 42 42 40 34 37 32 22 29 31 34 31 33 33 30 29 24
59 59 58 58 57 56 56 56 56 57 56 45 43 40 43 41 38 37 35 36 37 42 42 42 40 41 38 36 37 35 36 41 42 41 47 44 31 30 24 29 32 31 32 32 32 22 24
58 58 58 58 57 57 56 56 56 56 56 48 41 38 38 35 39 37 36 37 37 37 41 42 38 39 37 32 34 33 35 36 39 44 37 38 32 27 30 33 34 34 34 32 29 33 30
58 58 58 58 57 57 56 55 55 56 55 43 41 40 39 36 38 35 37 35 37 39 39 37 36 39 37 35 36 34 37 34 36 35 34 35 31 30 28 31 30 30 32 33 33 35 32
58 58 58 58 58 57 56 55 55 55 53 42 39 40 42 38 36 35 36 37 39 40 41 42 41 38 36 40 39 39 39 39 36 36 34 33 30 27 26 29 31 29 34 35 33 33 36
58 57 58 58 57 56 56 55 55 55 52 45 42 41 40 37 36 38 39 40 39 39 38 40 40 37 40 42 40 37 35 36 35 36 37 31 30 29 24 27 18 34 36 37 36 36 38
57 57 57 57 57 57 56 55 55 55 55 45 42 42 39 36 37 38 38 38 38 39 37 39 41 42 42 40 36 33 31 31 30 30 32 34 31 29 24 21 28 36 33 32 33 35 37
57 57 57 57 57 56 55 55 55 55 55 46 43 42 40 37 36 39 38 37 36 33 36 38 41 42 41 37 34 29 29 30 28 27 31 32 32 31 26 20 21 31 35 37 36 29 35
56 56 57 57 56 56 55 55 55 55 56 48 45 45 42 37 38 38 38 38 38 34 34 34 36 37 38 32 30 28 27 30 28 26 25 26 27 28 28 24 28 37 39 38 26 30 37
54 55 56 56 56 56 55 54 54 55 55 50 45 46 43 38 39 42 43 39 37 36 35 38 37 35 32 31 29 29 26 29 26 27 26 26 25 27 30 27 23 38 35 34 37 36 38
54 54 54 55 55 55 55 54 54 55 55 53 44 47 49 43 41 44 45 45 46 45 40 37 37 35 36 31 29 29 28 26 26 25 27 27 31 27 30 32 38 38 38 39 39 39 38
MSLP
1021.04 1020.73 1020.39 1020.03 1019.74 1019.40 1019.07 1018.76 1018.46 1018.08 1017.64 1017.24 1016.96 1016.65 1016.40 1016.02 1015.67 1015.34 1014.88 1014.37 1014.11 1014.09 1013.85 1013.66 1013.71 1013.52 1013.65 1013.69 1013.47 1013.12 1013.20 1013.48 1013.80 1014.21 1014.43 1014.73 1014.62 1014.95 1014.55 1014.28 1014.64 1015.24 1015.89 1015.82 1015.67 1015.37 1015.52
1021.42 1021.03 1020.66 1020.26 1019.86 1019.54 1019.14 1018.77 1018.45 1018.14 1017.79 1017.38 1017.06 1016.78 1016.40 1016.00 1015.51 1015.21 1014.95 1014.52 1014.15 1014.05 1013.92 1013.68 1013.71 1013.62 1013.78 1013.68 1013.11 1013.09 1013.52 1013.96 1014.16 1014.37 1014.48 1014.63 1014.62 1014.73 1014.57 1014.58 1014.86 1015.46 1015.85 1016.10 1016.00 1015.91 1015.93
1021.71 1021.34 1020.90 1020.36 1019.93 1019.63 1019.26 1018.85 1018.40 1018.13 1017.78 1017.44 1017.11 1016.82 1016.45 1015.97 1015.48 1014.94 1014.53 1014.37 1014.13 1014.54 1014.17 1013.71 1013.57 1013.73 1013.81 1013.81 1013.21 1013.33 1013.62 1014.18 1014.34 1014.43 1014.57 1014.59 1014.39 1014.58 1014.42 1014.88 1015.45 1015.65 1016.24 1016.15 1016.47 1016.35 1016.29
1022.09 1021.65 1021.07 1020.60 1020.16 1019.70 1019.33 1018.92 1018.42 1018.08 1017.85 1017.49 1017.14 1016.84 1016.49 1015.97 1015.31 1014.65 1014.15 1013.84 1014.10 1014.48 1013.95 1013.50 1013.50 1013.72 1013.71 1013.54 1013.49 1013.56 1013.71 1014.09 1014.27 1014.49 1014.33 1014.43 1014.25 1014.41 1014.58 1014.97 1015.68 1016.24 1016.68 1016.99 1017.06 1016.73 1016.36
1022.34 1021.84 1021.38 1020.86 1020.30 1019.77 1019.34 1018.93 1018.46 1018.04 1017.88 1017.56 1017.23 1016.84 1016.50 1015.97 1015.34 1014.61 1014.03 1013.52 1013.98 1013.94 1013.85 1013.86 1014.08 1014.09 1013.93 1013.48 1013.54 1013.86 1013.90 1014.17 1014.29 1014.53 1014.49 1014.51 1014.39 1014.95 1015.11 1015.68 1016.74 1017.34 1017.75 1017.58 1017.51 1017.32 1016.87
1022.54 1022.12 1021.72 1021.13 1020.55 1019.97 1019.43 1018.95 1018.51 1018.02 1017.82 1017.54 1017.26 1016.91 1016.57 1016.00 1015.35 1014.57 1013.83 1013.62 1014.00 1014.22 1014.62 1014.54 1014.42 1014.80 1014.24 1014.49 1014.14 1013.96 1013.72 1014.01 1014.40 1014.64 1015.23 1015.13 1015.43 1015.80 1016.35 1016.70 1017.59 1017.86 1018.19 1018.13 1017.96 1018.01 1017.46
1022.84 1022.39 1021.89 1021.40 1020.74 1020.17 1019.57 1019.04 1018.60 1018.12 1017.76 1017.54 1017.22 1016.90 1016.54 1016.11 1015.57 1014.83 1014.09 1014.06 1014.98 1015.08 1015.07 1015.75 1015.92 1015.88 1015.29 1014.48 1014.45 1014.59 1014.48 1014.27 1014.52 1015.45 1016.19 1016.48 1017.45 1017.65 1018.02 1017.68 1017.36 1017.58 1018.00 1018.45 1018.51 1018.45 1018.27
1023.12 1022.65 1022.11 1021.61 1021.05 1020.45 1019.85 1019.26 1018.74 1018.33 1017.90 1017.52 1017.21 1016.94 1016.50 1016.16 1015.75 1015.40 1015.39 1016.87 1017.79 1018.01 1017.26 1016.19 1015.66 1015.31 1014.70 1014.47 1014.23 1014.65 1014.48 1015.05 1015.42 1016.28 1016.86 1017.82 1018.67 1018.79 1018.21 1017.93 1017.86 1018.15 1018.66 1018.99 1019.02 1018.87 1018.94
1023.32 1022.87 1022.39 1021.83 1021.25 1020.68 1020.13 1019.61 1019.06 1018.57 1018.12 1017.62 1017.27 1016.87 1016.47 1016.13 1015.81 1016.03 1017.05 1017.82 1017.82 1017.98 1017.64 1016.52 1016.25 1015.39 1015.20 1014.78 1015.32 1016.12 1015.92 1015.69 1015.78 1016.99 1017.89 1018.92 1019.58 1018.66 1018.57 1018.66 1018.71 1019.62 1019.44 1019.43 1019.67 1019.76 1020.13
1023.58 1023.06 1022.61 1022.05 1021.49 1020.89 1020.30 1019.79 1019.32 1018.86 1018.46 1018.07 1017.58 1017.00 1016.48 1016.09 1016.39 1017.09 1017.53 1017.93 1017.69 1017.89 1018.12 1017.93 1016.49 1016.18 1015.80 1015.23 1015.54 1015.89 1015.53 1015.78 1016.67 1018.01 1018.80 1019.59 1019.36 1019.12 1019.22 1019.65 1019.74 1020.02 1020.04 1019.99 1020.49 1021.22 1021.77
1023.78 1023.37 1022.91 1022.26 1021.68 1021.13 1020.50 1019.89 1019.39 1018.97 1018.60 1018.18 1017.69 1017.21 1016.73 1016.06 1016.78 1017.48 1018.06 1017.75 1017.60 1017.76 1018.60 1018.56 1017.09 1015.68 1015.70 1016.29 1016.42 1015.91 1015.71 1015.82 1017.61 1018.80 1019.22 1020.52 1020.05 1019.93 1020.06 1020.57 1020.16 1020.53 1020.44 1020.93 1021.70 1022.38 1023.04
1023.84 1023.54 1023.05 1022.53 1021.94 1021.33 1020.69 1020.02 1019.44 1018.91 1018.46 1018.03 1017.71 1017.35 1016.93 1017.04 1017.29 1017.69 1017.49 1017.50 1017.75 1018.57 1020.10 1019.09 1018.09 1017.29 1016.81 1016.78 1016.95 1016.63 1016.59 1016.63 1017.90 1018.75 1019.62 1020.50 1020.28 1020.54 1020.83 1020.69 1020.42 1020.68 1021.04 1021.93 1022.84 1023.65 1024.63
1024.00 1023.71 1023.20 1022.68 1022.12 1021.53 1020.89 1020.19 1019.48 1018.81 1018.31 1017.86 1017.54 1017.33 1017.10 1017.43 1017.91 1017.61 1017.41 1017.89 1019.06 1020.15 1021.33 1020.30 1019.30 1018.55 1018.36 1018.39 1018.13 1018.16 1018.54 1018.69 1019.13 1019.92 1021.08 1020.88 1021.06 1021.17 1021.02 1020.97 1020.96 1021.15 1022.12 1023.47 1024.62 1025.26 1025.63
1024.15 1023.78 1023.27 1022.87 1022.27 1021.61 1021.00 1020.35 1019.68 1018.99 1018.40 1017.85 1017.54 1017.39 1017.54 1017.71 1017.82 1017.79 1017.85 1018.68 1020.66 1021.94 1021.34 1020.47 1019.82 1019.23 1019.25 1019.17 1019.19 1019.24 1019.30 1020.00 1020.11 1020.46 1021.58 1021.88 1022.15 1021.91 1021.78 1021.81 1021.81 1022.18 1022.83 1024.19 1025.71 1026.80 1026.66
1024.09 1023.82 1023.38 1022.95 1022.43 1021.78 1021.08 1020.43 1019.78 1019.15 1018.44 1017.98 1017.77 1017.84 1017.92 1017.82 1017.71 1017.85 1018.40 1020.47 1022.25 1022.17 1021.59 1020.79 1019.90 1019.90 1019.94 1019.58 1019.54 1019.76 1020.50 1021.01 1020.97 1020.93 1021.31 1021.85 1022.34 1022.24 1022.07 1021.90 1022.25 1022.74 1023.47 1024.47 1025.89 1027.76 1027.25
1024.01 1023.77 1023.43 1023.05 1022.57 1021.98 1021.27 1020.54 1019.86 1019.18 1018.48 1017.97 1018.28 1018.29 1018.26 1017.83 1017.71 1018.16 1019.01 1021.56 1021.90 1021.47 1021.02 1020.90 1020.81 1020.55 1020.44 1020.32 1020.26 1020.43 1021.03 1021.16 1021.05 1020.98 1021.14 1021.55 1022.20 1022.50 1022.30 1022.23 1022.55 1022.76 1023.65 1024.60 1025.68 1027.15 1027.22
1024.02 1023.77 1023.41 1023.07 1022.69 1022.13 1021.49 1020.73 1019.96 1019.14 1018.45 1017.93 1018.56 1018.59 1017.98 1017.78 1017.79 1018.67 1021.28 1021.98 1021.68 1021.20 1020.91 1020.49 1020.47 1020.65 1020.76 1020.76 1020.67 1020.96 1021.36 1021.38 1021.30 1021.29 1021.19 1021.60 1022.17 1023.20 1022.94 1022.73 1022.76 1023.36 1023.73 1024.69 1025.56 1026.37 1026.85
1023.96 1023.70 1023.39 1023.11 1022.79 1022.29 1021.67 1020.91 1020.21 1019.38 1018.49 1018.09 1018.78 1019.14 1018.26 1018.02 1018.87 1020.92 1021.88 1021.53 1021.08 1021.04 1020.70 1020.46 1020.31 1020.14 1020.16 1020.38 1020.89 1021.15 1021.44 1021.51 1021.42 1021.34 1021.63 1022.11 1022.61 1023.28 1023.16 1022.98 1022.94 1023.13 1023.50 1024.06 1025.31 1026.38 1026.51
1023.90 1023.72 1023.38 1023.13 1022.82 1022.41 1021.84 1021.17 1020.48 1019.80 1019.21 1019.29 1019.73 1019.64 1018.45 1018.49 1020.39 1021.71 1021.40 1021.12 1020.90 1020.73 1020.77 1020.62 1020.53 1020.44 1020.41 1020.48 1020.72 1020.78 1020.92 1021.14 1021.29 1021.58 1021.90 1022.11 1022.80 1023.36 1023.39 1023.61 1023.39 1023.48 1023.71 1024.18 1024.92 1025.43 1025.44
1023.78 1023.70 1023.45 1023.12 1022.86 1022.57 1022.08 1021.48 1020.84 1020.17 1019.48 1019.68 1020.32 1020.40 1019.98 1020.25 1021.87 1021.83 1021.73 1021.31 1020.81 1020.55 1020.43 1020.45 1020.72 1020.71 1020.72 1020.77 1020.85 1021.03 1021.22 1021.44 1021.43 1021.42 1021.57 1021.94 1023.33 1023.99 1024.17 1024.01 1023.91 1024.04 1023.97 1024.28 1024.57 1025.18 1024.44
1023.59 1023.45 1023.40 1023.11 1022.96 1022.61 1022.27 1021.82 1021.17 1020.39 1019.57 1019.69 1021.31 1022.42 1022.40 1022.30 1022.25 1022.01 1021.74 1021.49 1021.20 1020.97 1020.81 1020.82 1020.80 1020.77 1020.86 1020.96 1021.04 1021.29 1021.58 1021.70 1021.73 1021.72 1022.04 1022.51 1023.32 1023.78 1023.58 1023.30 1023.32 1023.21 1023.43 1023.85 1024.33 1023.51 1023.26
1023.47 1023.37 1023.34 1023.06 1022.83 1022.64 1022.46 1022.16 1021.59 1020.63 1019.91 1020.63 1022.15 1022.93 1022.98 1022.69 1022.50 1021.93 1021.54 1021.45 1021.24 1021.02 1021.10 1021.16 1021.21 1021.22 1021.46 1021.58 1021.41 1021.36 1021.62 1022.18 1022.13 1022.66 1022.98 1023.21 1023.42 1023.82 1023.57 1023.33 1023.51 1023.18 1022.16 1022.17 1021.74 1021.49 1021.07
1023.16 1023.10 1023.09 1023.10 1022.89 1022.73 1022.50 1022.36 1022.07 1021.46 1020.64 1021.60 1022.58 1022.57 1022.67 1023.18 1022.82 1022.36 1021.60 1021.11 1020.88 1020.73 1020.96 1020.92 1021.02 1021.11 1021.32 1021.46 1021.55 1021.66 1021.94 1022.25 1022.61 1023.13 1023.72 1024.03 1024.21 1024.68 1023.99 1023.28 1022.55 1021.50 1019.36 1019.66 1020.18 1020.28 1020.05
1022.78 1022.77 1022.70 1022.73 1022.73 1022.65 1022.65 1022.39 1022.22 1022.09 1021.98 1022.54 1023.08 1022.88 1022.62 1023.23 1023.13 1022.74 1022.09 1021.72 1021.44 1021.17 1021.43 1021.34 1021.38 1021.45 1021.47 1021.23 1021.37 1021.56 1021.89 1022.02 1022.55 1023.16 1023.86 1024.52 1025.09 1025.23 1024.93 1023.86 1022.14 1018.73 1018.34 1018.44 1018.98 1018.63 1018.60
1022.10 1022.24 1022.32 1022.41 1022.41 1022.54 1022.66 1022.52 1022.20 1022.16 1022.21 1022.64 1023.00 1023.23 1023.26 1022.98 1022.60 1022.18 1022.04 1021.99 1021.96 1021.86 1021.89 1021.97 1021.91 1022.13 1022.02 1021.97 1022.18 1022.33 1022.24 1022.31 1022.79 1023.18 1023.55 1024.50 1025.24 1025.49 1025.29 1024.38 1021.38 1018.71 1018.54 1018.38 1018.37 1017.64 1017.04
1021.64 1021.76 1021.91 1022.01 1022.16 1022.35 1022.45 1022.46 1022.50 1022.34 1022.32 1022.50 1022.77 1023.26 1023.65 1023.39 1022.65 1022.26 1022.00 1022.01 1022.19 1022.52 1022.60 1022.17 1022.04 1022.08 1022.32 1022.94 1023.25 1023.43 1023.17 1022.71 1023.13 1023.53 1023.83 1023.98 1023.92 1024.47 1025.03 1024.36 1022.06 1019.55 1018.63 1018.31 1018.32 1017.93 1017.31
1021.30 1021.28 1021.32 1021.53 1021.69 1021.84 1022.10 1022.30 1022.23 1022.27 1022.37 1022.69 1023.04 1023.01 1022.95 1023.72 1023.29 1022.75 1022.11 1022.16 1022.28 1022.57 1022.76 1022.54 1022.52 1022.66 1022.72 1023.33 1023.90 1024.12 1023.66 1023.13 1023.28 1023.56 1024.03 1024.40 1024.65 1023.92 1023.55 1022.74 1020.46 1018.47 1018.05 1017.99 1018.37 1017.87 1017.20
1021.14 1020.90 1020.78 1020.87 1021.03 1021.27 1021.65 1021.95 1022.09 1022.24 1022.09 1022.65 1022.86 1022.79 1023.13 1022.98 1022.39 1022.41 1022.50 1022.03 1022.35 1022.45 1022.48 1022.49 1022.93 1023.08 1023.74 1024.09 1024.21 1023.89 1023.71 1023.02 1023.18 1023.06 1023.24 1023.35 1023.33 1023.32 1023.02 1022.14 1019.69 1017.81 1018.09 1018.26 1017.62 1017.40 1017.51
1020.68 1020.40 1020.27 1020.28 1020.46 1020.66 1021.00 1021.42 1021.68 1021.86 1022.01 1022.28 1022.98 1022.96 1022.63 1023.07 1022.56 1022.07 1021.65 1021.66 1021.79 1021.66 1022.00 1022.56 1022.67 1022.50 1022.67 1023.40 1023.95 1024.10 1023.95 1023.53 1023.35 1023.47 1022.77 1022.70 1021.60 1021.48 1021.07 1019.34 1017.99 1017.54 1017.38 1017.13 1017.30 1017.37 1017.46
Wind_Speed
18 18 18 17 17 16 16 15 14 13 12 12 12 12 13 15 15 13 11 11 10 9 7 9 9 8 1 1 2 2 4 6 6 5 3 3 4 3 3 7 5 6 2 4 1 6 5
18 18 18 18 17 17 15 15 14 13 12 12 13 13 14 15 16 14 11 11 9 5 10 10 10 4 0 1 1 6 8 5 4 2 3 4 3 4 3 5 4 5 6 3 7 5 5
17 18 18 18 18 17 16 15 15 13 12 12 12 14 16 17 16 16 15 10 9 4 7 11 8 3 1 3 3 6 8 6 4 3 4 2 3 1 3 7 3 5 7 5 9 7 3
17 16 19 19 19 18 17 15 15 14 13 12 12 13 15 17 18 17 17 14 5 9 6 7 10 2 4 3 4 8 4 2 4 4 3 6 6 1 2 6 6 6 6 5 5 7 4
16 19 19 19 20 19 19 17 14 14 13 12 12 13 14 16 18 18 17 13 6 10 8 3 6 4 4 9 3 2 4 4 3 1 3 4 1 3 4 6 6 8 5 4 2 4 3
17 18 18 19 20 21 20 19 15 13 13 13 12 11 13 15 19 18 13 5 5 5 4 2 2 5 8 5 4 2 4 3 2 5 4 6 6 4 5 6 6 5 7 3 3 4 5
18 19 19 19 21 22 22 21 17 13 12 12 12 11 12 12 16 18 9 5 9 8 9 6 4 4 8 7 2 3 3 4 4 9 3 6 9 4 3 3 4 8 6 5 1 3 3
18 19 20 20 21 22 22 22 19 15 11 10 11 11 11 11 10 13 5 8 3 3 2 2 1 4 3 2 9 14 7 4 3 4 2 8 5 5 3 3 7 6 6 3 1 4 1
17 19 20 21 21 22 22 23 21 17 13 10 11 11 12 11 5 6 6 3 1 3 3 6 3 4 4 7 5 6 4 1 6 9 7 7 4 3 4 7 7 5 6 3 2 3 3
17 19 20 21 21 21 22 21 21 18 14 13 12 12 13 11 7 2 4 2 2 2 7 12 7 1 4 8 7 2 2 2 8 6 3 6 5 5 6 7 3 4 2 3 4 5 2
16 17 19 20 21 21 21 21 21 20 16 13 12 12 7 8 4 3 4 4 2 3 7 12 10 5 6 7 2 7 3 8 4 4 4 3 5 8 9 4 2 4 3 4 3 5 4
14 17 18 19 19 20 20 20 20 21 19 14 10 11 3 5 3 2 2 3 3 10 3 9 5 7 5 8 7 7 7 8 4 8 8 3 1 5 2 3 4 5 5 7 5 3 4
12 15 16 18 18 18 18 19 19 22 21 16 8 7 4 2 1 3 1 4 8 9 4 9 5 6 2 8 7 7 6 8 5 6 6 6 5 4 5 4 4 6 6 5 7 7 6
12 13 14 16 17 18 18 17 19 20 20 16 9 4 4 1 3 3 3 7 12 5 3 4 3 4 6 7 5 8 4 6 7 5 4 4 7 7 7 3 2 4 4 7 6 3 6
8 11 13 14 17 18 19 19 19 18 19 13 6 3 2 3 3 2 6 9 5 3 4 7 3 6 7 5 3 6 5 3 2 4 3 4 2 3 3 2 2 1 3 4 9 2 4
10 10 13 14 17 19 20 21 21 20 18 8 2 2 3 6 2 5 8 5 3 4 1 1 3 3 3 6 5 6 6 3 4 3 1 3 5 1 2 0 4 2 6 5 4 2 4
12 14 13 15 16 17 19 21 22 23 21 2 4 3 3 4 2 7 6 2 1 2 1 3 3 3 2 4 2 2 1 2 3 5 3 2 4 3 2 2 5 2 2 5 4 4 5
11 13 14 15 14 17 19 20 21 24 20 6 3 4 3 2 7 3 3 2 1 2 1 1 1 1 3 3 3 3 2 1 5 2 3 1 4 2 1 1 1 1 3 5 6 4 1
11 12 12 14 14 16 18 20 19 21 14 2 3 2 2 3 5 2 1 2 2 2 3 4 2 2 1 1 3 2 3 2 3 3 2 1 2 3 6 4 4 2 3 3 4 3 7
9 11 11 12 12 15 17 20 21 19 11 4 3 4 6 6 1 4 2 1 2 1 2 2 1 2 2 2 2 2 1 0 1 3 6 5 3 4 6 3 2 3 3 4 4 3 4
9 9 10 10 11 13 16 18 20 21 11 3 5 1 1 3 4 4 3 1 2 2 3 3 2 1 1 1 1 2 1 2 1 2 2 3 4 4 7 9 6 7 7 7 9 9 9
9 9 10 9 8 10 14 17 19 22 12 6 3 2 3 1 2 2 2 2 1 1 1 1 1 2 1 3 3 2 3 2 4 2 0 3 3 5 5 2 5 7 12 13 16 16 14
10 9 9 10 8 7 10 13 16 19 10 3 1 1 4 3 3 1 3 3 3 2 2 3 4 3 2 5 3 3 2 1 1 4 4 2 4 2 6 4 4 9 14 16 5 5 11
11 10 9 10 9 6 6 8 10 13 8 2 1 1 4 1 1 2 2 2 2 1 2 1 3 3 2 1 1 0 1 3 2 4 2 4 3 1 4 3 3 7 1 3 9 8 13
11 11 10 10 9 6 5 7 7 8 9 3 0 2 2 1 2 2 3 2 3 4 1 2 2 1 2 4 3 5 3 3 1 4 4 3 4 2 2 3 9 7 1 3 5 7 8
10 10 10 10 9 7 5 4 4 5 6 3 2 2 2 3 4 1 1 1 2 1 5 2 1 1 4 3 2 3 5 4 4 2 3 5 5 6 4 3 6 3 3 2 1 7 2
10 11 11 11 11 10 9 6 3 1 2 3 1 0 4 1 3 0 3 4 4 2 2 3 2 1 2 3 3 5 5 2 4 5 5 4 2 10 9 6 8 8 5 2 2 5 4
14 13 12 12 12 12 11 9 7 6 4 3 2 2 2 2 4 4 4 4 1 1 4 3 3 0 3 2 3 4 4 4 2 3 6 8 8 6 5 5 11 5 3 7 5 1 3
15 14 15 15 13 13 13 11 10 10 8 5 1 1 2 2 5 3 5 3 5 5 5 2 2 3 5 4 2 1 3 1 2 4 1 4 7 6 10 9 2 5 5 3 4 4 4
Wind_Direction
25 16 15 20 19 15 10 5 4 2 12 5 358 355 354 351 352 348 337 335 345 27 10 16 24 350 334 45 279 123 150 92 78 101 203 204 114 261 149 115 91 89 138 54 59 63 39
24 19 14 16 18 14 11 5 0 358 360 359 352 352 342 341 339 340 332 307 299 313 350 346 7 7 359 18 130 114 104 88 59 136 172 206 167 260 113 75 91 129 100 87 42 29 41
24 16 14 14 13 14 12 6 356 357 355 352 350 343 339 334 335 333 331 319 296 342 347 326 1 64 45 1 115 116 123 121 243 232 125 262 219 346 179 89 162 125 80 63 25 349 40
21 16 14 10 8 8 9 6 357 351 353 349 346 341 340 338 331 331 332 332 11 122 199 295 20 76 75 17 125 102 91 104 243 266 106 256 247 126 40 117 38 70 51 82 345 355 335
15 19 13 7 4 4 6 6 358 350 353 350 345 343 344 339 331 329 330 322 52 158 177 212 15 36 5 336 34 30 150 176 164 156 82 280 53 92 39 86 54 21 116 89 57 36 330
15 15 13 7 4 2 3 5 1 356 353 348 346 347 345 341 334 334 335 326 41 104 101 182 96 44 333 329 308 15 352 104 139 89 27 26 36 67 41 57 159 137 101 64 116 337 23
16 11 12 7 4 3 4 7 3 360 356 350 346 346 342 344 342 345 8 20 15 3 23 76 199 113 297 283 195 35 322 99 66 64 58 13 61 46 324 15 114 114 97 106 354 348 27
14 10 9 6 0 2 4 7 7 359 359 359 349 343 337 334 347 355 37 77 163 216 58 32 240 306 255 252 40 11 37 53 78 83 35 27 61 311 322 77 91 70 108 77 21 3 59
13 8 5 2 358 359 1 6 11 9 359 3 352 342 336 333 350 44 76 94 299 173 70 18 38 17 299 17 67 26 356 219 77 64 45 101 283 347 80 43 81 38 109 125 109 18 69
13 8 3 359 357 356 358 360 7 10 3 348 344 342 334 326 42 300 59 354 306 171 70 331 353 95 330 0 19 242 300 123 38 96 78 72 332 61 64 72 25 87 330 85 69 76 211
13 4 0 357 356 356 356 356 358 360 356 350 336 343 1 32 151 68 309 335 279 74 58 313 315 307 336 125 298 343 330 38 63 54 80 300 18 42 52 341 332 135 78 81 83 88 71
4 357 357 357 355 354 353 351 350 353 348 342 334 341 355 14 38 133 326 4 38 45 327 333 326 350 7 19 7 330 25 44 164 73 38 67 38 61 52 21 52 152 69 46 58 74 36
4 358 352 353 354 352 352 350 347 350 348 339 332 343 39 85 336 334 45 52 44 84 315 319 334 3 37 5 19 30 29 27 56 75 9 9 12 352 34 62 20 61 56 3 2 10 220
359 355 345 350 351 351 350 349 347 349 348 343 345 12 14 48 332 347 44 51 65 255 252 288 325 341 56 2 18 6 37 36 29 69 87 105 344 7 337 62 138 58 119 148 196 197 268
349 342 338 347 351 352 350 347 345 350 351 343 353 360 18 331 355 56 72 53 161 229 326 340 6 51 354 5 36 61 46 34 334 28 119 131 14 323 31 20 60 187 57 151 103 60 44
336 333 337 344 350 351 350 348 345 347 353 358 45 32 312 325 16 60 72 122 147 194 173 37 32 6 44 338 44 36 14 326 352 37 211 199 84 5 312 109 30 72 153 66 0 135 278
336 335 343 345 349 349 350 349 347 347 348 37 55 41 266 346 53 54 84 122 199 282 269 117 136 57 35 9 49 50 351 10 14 335 41 98 95 287 351 201 180 88 67 55 112 127 170
323 330 343 347 348 348 347 350 350 348 351 50 89 34 325 31 52 40 74 14 155 6 348 353 58 113 138 118 60 57 29 344 341 335 43 352 129 160 173 334 145 153 187 148 126 227 235
319 324 337 343 347 349 345 347 350 353 12 20 71 277 339 70 80 27 177 103 93 55 16 4 22 21 337 104 100 159 161 177 43 61 82 14 15 17 349 10 7 260 209 124 96 80 206
309 319 329 338 347 345 346 346 346 349 5 78 52 28 342 49 95 100 71 16 91 121 126 114 355 353 11 14 2 190 211 312 19 121 115 112 101 153 188 213 150 257 224 197 151 148 179
301 313 317 329 342 346 347 346 345 343 349 89 28 33 202 340 11 73 44 12 37 13 15 6 22 170 177 234 311 289 297 305 358 150 82 112 187 170 228 218 196 203 211 192 208 223 199
285 302 307 314 336 346 349 346 346 346 347 74 93 53 358 69 312 70 41 98 64 4 152 345 72 360 314 279 211 273 154 236 220 347 171 337 199 163 261 192 204 258 236 223 219 228 244
267 280 295 302 318 342 350 349 351 353 7 68 298 125 113 343 352 32 233 171 163 141 189 184 179 140 217 235 259 285 252 330 273 169 205 164 139 79 282 9 330 288 226 209 183 217 218
255 261 268 281 293 311 336 355 359 4 39 99 303 62 94 276 87 259 328 317 272 224 281 273 155 155 221 279 258 141 303 253 193 260 113 136 109 3 286 347 223 249 44 130 204 236 219
247 247 253 262 271 284 313 344 5 11 22 73 36 86 92 273 196 260 220 239 346 345 293 287 325 332 358 31 27 339 329 355 51 85 164 114 123 314 282 246 300 307 47 141 172 282 207
265 252 248 248 250 251 253 297 347 11 14 89 125 110 57 101 244 188 113 134 188 239 329 275 63 33 60 71 83 232 243 238 255 180 42 120 125 158 155 236 251 263 321 345 302 278 153
301 279 250 238 234 222 219 230 228 217 3 96 289 152 104 121 288 209 190 183 135 135 210 283 299 35 37 123 176 205 249 222 239 197 170 128 175 214 214 248 278 244 240 308 152 249 180
312 289 266 241 225 212 207 207 210 219 208 126 243 181 116 166 259 196 229 163 113 169 170 208 50 317 61 178 181 236 205 230 252 175 184 175 163 195 190 222 264 174 103 172 214 215 176
318 292 260 242 226 212 201 198 205 210 213 150 264 289 155 160 241 225 227 230 197 198 157 225 207 157 193 121 211 359 256 264 196 262 17 247 196 189 193 212 243 211 213 245 176 171 213